This is the latest recevied weather packets stored in our database for station/object S54Z-11. If no packets are shown the sender has not sent any weather packets the latest 10 day(s).
| Time | Temp. | Humidity | Pressure | Rain* | Wind** | Luminosity | Snow |
|---|---|---|---|---|---|---|---|
| 1777461874 | 10.56° C | 62% | 1024.9 hPa | - | - | - | - |
| 1777460970 | 10.56° C | 57% | 1024.9 hPa | - | - | - | - |
| 1777459170 | 10.56° C | 54% | 1024.8 hPa | - | - | - | - |
| 1777457370 | 10.56° C | 53% | 1024.8 hPa | - | - | - | - |
| 1777456470 | 10° C | 53% | 1024.9 hPa | - | - | - | - |
| 1777455569 | 10° C | 59% | 1024.9 hPa | - | - | - | - |
| 1777454669 | 10° C | 60% | 1024.8 hPa | - | - | - | - |
| 1777453769 | 9.44° C | 60% | 1024.9 hPa | - | - | - | - |
| 1777452869 | 8.89° C | 62% | 1024.8 hPa | - | - | - | - |
| 1777451969 | 8.89° C | 63% | 1024.7 hPa | - | - | - | - |
| 1777451068 | 8.89° C | 62% | 1024.6 hPa | - | - | - | - |
| 1777450169 | 8.89° C | 62% | 1024.5 hPa | - | - | - | - |
| 1777449268 | 8.89° C | 66% | 1024.6 hPa | - | - | - | - |
| 1777448372 | 8.89° C | 72% | 1024.5 hPa | - | - | - | - |
| 1777447472 | 8.33° C | 67% | 1024.1 hPa | - | - | - | - |
| 1777446574 | 8.33° C | 75% | 1024.2 hPa | - | - | - | - |
| 1777445674 | 8.33° C | 71% | 1024 hPa | - | - | - | - |
| 1777444772 | 8.33° C | 69% | 1023.9 hPa | - | - | - | - |
| 1777443875 | 8.33° C | 72% | 1023.8 hPa | - | - | - | - |
| 1777442972 | 8.89° C | 81% | 1023.6 hPa | - | - | - | - |
| 1777442072 | 8.89° C | 85% | 1023.5 hPa | - | - | - | - |
| 1777441172 | 8.89° C | 84% | 1023.3 hPa | - | - | - | - |
| 1777440274 | 8.89° C | 79% | 1023.1 hPa | - | - | - | - |
| 1777439374 | 8.89° C | 95% | 1023.2 hPa | - | - | - | - |
| 1777438472 | 8.89° C | 86% | 1023 hPa | - | - | - | - |
* Rain since midnight (hover to see other rain measurements)
** Current wind speed in m/s (hover to see current wind gust speed)